QPF
0.00 0.00 0.00 0.02 0.05 0.05 0.04 0.02 0.01 0.02 0.01 0.01 0.02 0.03 0.04 0.05 0.07 0.12 0.11 0.07 0.09 0.10 0.12 0.12 0.09 0.05 0.05 0.06 0.07 0.08 0.10 0.07 0.05 0.05 0.07 0.08 0.08 0.09 0.09 0.07 0.06 0.06 0.07 0.08 0.08 0.07 0.07 0.08 0.09
0.00 0.00 0.00 0.01 0.02 0.03 0.03 0.02 0.02 0.02 0.01 0.01 0.02 0.02 0.04 0.05 0.06 0.09 0.08 0.07 0.08 0.07 0.10 0.09 0.08 0.06 0.06 0.06 0.06 0.08 0.08 0.06 0.10 0.14 0.11 0.08 0.09 0.08 0.10 0.08 0.08 0.09 0.10 0.11 0.10 0.09 0.07 0.09 0.10
0.00 0.01 0.01 0.01 0.02 0.03 0.03 0.03 0.03 0.01 0.02 0.01 0.01 0.02 0.03 0.03 0.03 0.05 0.08 0.08 0.07 0.06 0.10 0.09 0.08 0.06 0.05 0.05 0.06 0.08 0.06 0.07 0.09 0.10 0.11 0.10 0.09 0.08 0.10 0.10 0.11 0.14 0.13 0.11 0.11 0.11 0.09 0.10 0.09
0.02 0.02 0.01 0.01 0.02 0.01 0.02 0.03 0.02 0.02 0.02 0.01 0.00 0.01 0.02 0.03 0.03 0.04 0.06 0.09 0.06 0.08 0.13 0.10 0.07 0.05 0.05 0.05 0.06 0.06 0.04 0.05 0.07 0.09 0.11 0.10 0.08 0.10 0.12 0.11 0.13 0.19 0.16 0.14 0.13 0.12 0.13 0.11 0.11
0.02 0.02 0.01 0.02 0.02 0.02 0.01 0.02 0.02 0.02 0.01 0.00 0.00 0.01 0.02 0.04 0.04 0.04 0.05 0.08 0.07 0.09 0.12 0.08 0.07 0.06 0.05 0.05 0.05 0.05 0.04 0.04 0.05 0.06 0.06 0.06 0.07 0.09 0.10 0.11 0.18 0.26 0.19 0.16 0.16 0.16 0.14 0.12 0.11
0.02 0.02 0.02 0.02 0.03 0.02 0.01 0.01 0.01 0.01 0.01 0.01 0.01 0.01 0.04 0.05 0.05 0.07 0.08 0.07 0.06 0.07 0.07 0.07 0.08 0.06 0.05 0.06 0.06 0.07 0.06 0.04 0.04 0.05 0.05 0.06 0.07 0.10 0.10 0.16 0.22 0.27 0.19 0.14 0.15 0.13 0.11 0.12 0.13
0.02 0.02 0.02 0.02 0.02 0.01 0.01 0.00 0.01 0.01 0.01 0.01 0.01 0.02 0.04 0.05 0.06 0.06 0.06 0.05 0.06 0.07 0.06 0.07 0.07 0.04 0.05 0.07 0.07 0.09 0.08 0.07 0.06 0.05 0.06 0.06 0.06 0.07 0.09 0.12 0.12 0.12 0.09 0.12 0.12 0.11 0.12 0.13 0.12
0.00 0.02 0.01 0.01 0.01 0.01 0.00 0.00 0.01 0.01 0.01 0.01 0.02 0.04 0.05 0.05 0.05 0.05 0.06 0.05 0.05 0.06 0.06 0.05 0.05 0.04 0.06 0.07 0.06 0.08 0.08 0.09 0.09 0.06 0.07 0.07 0.06 0.04 0.03 0.03 0.04 0.04 0.07 0.09 0.11 0.13 0.15 0.14 0.13
0.00 0.02 0.02 0.01 0.01 0.00 0.00 0.01 0.01 0.00 0.00 0.01 0.02 0.04 0.05 0.03 0.03 0.04 0.06 0.06 0.06 0.05 0.05 0.05 0.05 0.05 0.08 0.08 0.07 0.08 0.09 0.12 0.10 0.06 0.05 0.06 0.08 0.06 0.04 0.03 0.03 0.06 0.08 0.10 0.13 0.13 0.13 0.12 0.13
0.01 0.02 0.02 0.00 0.00 0.00 0.01 0.01 0.01 0.01 0.01 0.01 0.02 0.03 0.03 0.02 0.02 0.03 0.04 0.07 0.06 0.04 0.04 0.05 0.05 0.06 0.08 0.05 0.06 0.07 0.07 0.13 0.13 0.07 0.07 0.08 0.09 0.08 0.06 0.07 0.06 0.06 0.07 0.09 0.09 0.10 0.11 0.11 0.10
0.00 0.01 0.01 0.00 0.00 0.00 0.00 0.01 0.01 0.02 0.02 0.02 0.03 0.03 0.04 0.03 0.02 0.03 0.03 0.05 0.05 0.03 0.02 0.04 0.04 0.05 0.05 0.04 0.06 0.05 0.04 0.08 0.10 0.07 0.07 0.08 0.07 0.08 0.09 0.09 0.07 0.06 0.06 0.06 0.05 0.06 0.10 0.10 0.07
0.00 0.00 0.00 0.00 0.00 0.00 0.00 0.01 0.01 0.01 0.01 0.02 0.03 0.04 0.04 0.04 0.04 0.03 0.03 0.03 0.03 0.03 0.03 0.03 0.04 0.05 0.04 0.04 0.06 0.04 0.04 0.04 0.05 0.06 0.07 0.06 0.06 0.09 0.10 0.08 0.07 0.05 0.05 0.06 0.07 0.07 0.09 0.13 0.10
0.00 0.00 0.00 0.00 0.00 0.00 0.00 0.00 0.01 0.01 0.01 0.02 0.02 0.03 0.06 0.06 0.05 0.04 0.03 0.04 0.05 0.04 0.03 0.03 0.04 0.04 0.04 0.06 0.06 0.04 0.07 0.06 0.05 0.04 0.05 0.05 0.05 0.07 0.07 0.06 0.06 0.04 0.05 0.07 0.08 0.06 0.07 0.09 0.10
0.00 0.00 0.00 0.00 0.00 0.00 0.00 0.00 0.00 0.00 0.01 0.01 0.01 0.01 0.03 0.05 0.05 0.05 0.05 0.05 0.05 0.04 0.04 0.05 0.04 0.03 0.04 0.05 0.06 0.04 0.05 0.05 0.03 0.03 0.04 0.03 0.05 0.05 0.06 0.05 0.05 0.04 0.05 0.06 0.06 0.05 0.05 0.06 0.09
0.00 0.01 0.00 0.00 0.00 0.00 0.00 0.00 0.00 0.00 0.00 0.00 0.01 0.01 0.01 0.03 0.03 0.03 0.03 0.03 0.03 0.03 0.03 0.04 0.03 0.04 0.05 0.06 0.05 0.03 0.03 0.04 0.03 0.02 0.03 0.03 0.05 0.05 0.06 0.06 0.06 0.06 0.05 0.05 0.04 0.04 0.06 0.07 0.07
0.01 0.01 0.00 0.00 0.00 0.00 0.00 0.00 0.00 0.01 0.00 0.00 0.00 0.00 0.01 0.01 0.01 0.01 0.02 0.02 0.03 0.02 0.02 0.02 0.02 0.05 0.06 0.05 0.04 0.03 0.02 0.03 0.02 0.02 0.03 0.04 0.05 0.05 0.04 0.04 0.05 0.06 0.04 0.04 0.04 0.04 0.05 0.06 0.06
0.01 0.02 0.01 0.00 0.00 0.00 0.00 0.01 0.01 0.01 0.01 0.01 0.01 0.00 0.00 0.00 0.01 0.02 0.02 0.02 0.03 0.02 0.02 0.03 0.03 0.04 0.06 0.06 0.04 0.03 0.03 0.04 0.04 0.04 0.04 0.05 0.05 0.03 0.04 0.04 0.05 0.05 0.05 0.04 0.03 0.03 0.04 0.05 0.08
0.01 0.01 0.01 0.00 0.00 0.00 0.00 0.01 0.00 0.00 0.01 0.02 0.01 0.01 0.01 0.01 0.01 0.02 0.02 0.03 0.03 0.03 0.02 0.03 0.03 0.04 0.05 0.05 0.04 0.03 0.04 0.05 0.04 0.04 0.05 0.05 0.05 0.05 0.06 0.05 0.05 0.05 0.05 0.05 0.04 0.04 0.04 0.05 0.07
0.01 0.01 0.01 0.01 0.00 0.00 0.00 0.00 0.00 0.00 0.00 0.01 0.01 0.01 0.01 0.02 0.02 0.01 0.02 0.02 0.02 0.03 0.02 0.01 0.02 0.04 0.04 0.04 0.04 0.03 0.04 0.04 0.04 0.04 0.04 0.04 0.03 0.04 0.05 0.06 0.06 0.06 0.07 0.07 0.05 0.05 0.04 0.04 0.05
0.00 0.00 0.01 0.00 0.00 0.00 0.00 0.00 0.00 0.00 0.00 0.00 0.00 0.01 0.01 0.02 0.04 0.01 0.01 0.01 0.01 0.01 0.01 0.01 0.01 0.02 0.02 0.03 0.03 0.03 0.03 0.03 0.03 0.03 0.03 0.04 0.03 0.03 0.04 0.07 0.07 0.07 0.08 0.07 0.06 0.05 0.04 0.04 0.05
0.00 0.00 0.00 0.01 0.00 0.00 0.00 0.01 0.01 0.01 0.01 0.00 0.00 0.00 0.01 0.01 0.03 0.02 0.01 0.00 0.01 0.01 0.01 0.02 0.02 0.02 0.03 0.03 0.03 0.03 0.03 0.03 0.04 0.04 0.04 0.04 0.03 0.03 0.03 0.03 0.04 0.05 0.04 0.04 0.05 0.04 0.05 0.05 0.04
0.00 0.00 0.00 0.00 0.00 0.00 0.00 0.01 0.01 0.00 0.01 0.01 0.01 0.00 0.00 0.01 0.01 0.02 0.01 0.00 0.00 0.00 0.01 0.02 0.03 0.04 0.05 0.04 0.04 0.04 0.04 0.04 0.04 0.04 0.04 0.04 0.03 0.03 0.04 0.03 0.03 0.04 0.04 0.05 0.04 0.04 0.05 0.07 0.05
0.00 0.00 0.00 0.00 0.00 0.00 0.00 0.00 0.00 0.00 0.00 0.00 0.00 0.00 0.00 0.00 0.01 0.01 0.01 0.00 0.00 0.00 0.00 0.01 0.02 0.04 0.05 0.05 0.05 0.05 0.04 0.05 0.04 0.03 0.03 0.04 0.05 0.04 0.04 0.03 0.03 0.04 0.04 0.06 0.04 0.06 0.06 0.06 0.06
0.00 0.00 0.00 0.01 0.01 0.01 0.00 0.00 0.00 0.00 0.00 0.00 0.00 0.00 0.01 0.01 0.01 0.01 0.01 0.01 0.01 0.01 0.01 0.01 0.02 0.04 0.04 0.04 0.04 0.04 0.05 0.05 0.04 0.04 0.04 0.05 0.05 0.05 0.04 0.03 0.03 0.03 0.04 0.06 0.07 0.07 0.06 0.06 0.06
0.00 0.01 0.01 0.01 0.01 0.01 0.00 0.00 0.00 0.01 0.00 0.00 0.00 0.00 0.00 0.01 0.01 0.01 0.02 0.01 0.01 0.02 0.01 0.02 0.03 0.04 0.05 0.04 0.04 0.07 0.07 0.06 0.05 0.05 0.05 0.04 0.04 0.04 0.04 0.03 0.04 0.03 0.03 0.04 0.06 0.06 0.06 0.05 0.06
0.00 0.00 0.01 0.01 0.01 0.00 0.00 0.00 0.00 0.00 0.00 0.00 0.00 0.00 0.00 0.00 0.01 0.01 0.01 0.01 0.01 0.02 0.02 0.03 0.04 0.04 0.04 0.05 0.05 0.06 0.07 0.06 0.05 0.05 0.04 0.03 0.02 0.02 0.02 0.03 0.03 0.04 0.04 0.03 0.05 0.04 0.05 0.06 0.07
0.01 0.00 0.00 0.01 0.00 0.00 0.00 0.00 0.00 0.00 0.00 0.00 0.00 0.00 0.00 0.00 0.01 0.01 0.01 0.01 0.01 0.02 0.02 0.02 0.03 0.02 0.02 0.03 0.03 0.03 0.04 0.03 0.04 0.05 0.04 0.03 0.02 0.02 0.03 0.03 0.04 0.04 0.04 0.04 0.04 0.04 0.05 0.06 0.06
0.01 0.00 0.01 0.01 0.01 0.00 0.00 0.00 0.00 0.00 0.00 0.00 0.00 0.00 0.00 0.00 0.01 0.03 0.01 0.01 0.01 0.01 0.01 0.02 0.03 0.03 0.02 0.02 0.03 0.03 0.02 0.02 0.03 0.02 0.02 0.02 0.01 0.01 0.03 0.03 0.04 0.04 0.03 0.04 0.04 0.04 0.04 0.04 0.06
0.01 0.00 0.01 0.01 0.01 0.00 0.00 0.00 0.00 0.00 0.00 0.00 0.00 0.00 0.00 0.00 0.02 0.04 0.02 0.01 0.01 0.01 0.02 0.02 0.03 0.02 0.02 0.02 0.03 0.03 0.03 0.03 0.02 0.01 0.02 0.01 0.01 0.02 0.03 0.03 0.03 0.03 0.03 0.03 0.04 0.05 0.05 0.05 0.06
0.00 0.00 0.01 0.01 0.00 0.01 0.00 0.00 0.00 0.00 0.00 0.00 0.00 0.00 0.00 0.01 0.01 0.03 0.03 0.01 0.01 0.02 0.03 0.03 0.02 0.02 0.01 0.02 0.02 0.02 0.02 0.01 0.01 0.02 0.01 0.01 0.01 0.01 0.02 0.02 0.02 0.03 0.03 0.03 0.03 0.03 0.03 0.03 0.02
MSLP
1010.46 1011.04 1011.57 1011.94 1012.07 1011.91 1011.49 1010.87 1010.16 1009.49 1008.94 1008.59 1008.45 1008.48 1008.61 1008.77 1008.90 1008.96 1008.96 1008.95 1008.97 1009.09 1009.34 1009.72 1010.22 1010.77 1011.31 1011.79 1012.18 1012.48 1012.70 1012.90 1013.12 1013.38 1013.69 1014.03 1014.36 1014.66 1014.88 1015.02 1015.08 1015.11 1015.14 1015.21 1015.35 1015.54 1015.77 1016.00 1016.17
1010.65 1011.24 1011.72 1012.00 1012.00 1011.70 1011.16 1010.45 1009.71 1009.05 1008.57 1008.31 1008.27 1008.40 1008.62 1008.84 1009.00 1009.07 1009.07 1009.05 1009.08 1009.21 1009.50 1009.94 1010.50 1011.12 1011.73 1012.27 1012.71 1013.05 1013.30 1013.51 1013.72 1013.96 1014.23 1014.51 1014.78 1015.00 1015.16 1015.23 1015.25 1015.25 1015.28 1015.35 1015.50 1015.70 1015.93 1016.14 1016.27
1010.95 1011.51 1011.92 1012.08 1011.95 1011.54 1010.91 1010.16 1009.43 1008.82 1008.43 1008.27 1008.33 1008.53 1008.80 1009.04 1009.20 1009.25 1009.24 1009.21 1009.25 1009.42 1009.76 1010.26 1010.91 1011.61 1012.29 1012.90 1013.40 1013.77 1014.04 1014.25 1014.43 1014.63 1014.84 1015.05 1015.23 1015.37 1015.44 1015.44 1015.41 1015.39 1015.40 1015.47 1015.62 1015.81 1016.02 1016.19 1016.27
1011.28 1011.79 1012.10 1012.14 1011.89 1011.39 1010.72 1009.98 1009.31 1008.79 1008.51 1008.46 1008.61 1008.87 1009.17 1009.41 1009.54 1009.58 1009.54 1009.52 1009.59 1009.81 1010.21 1010.80 1011.52 1012.30 1013.05 1013.71 1014.23 1014.61 1014.87 1015.05 1015.20 1015.33 1015.46 1015.58 1015.67 1015.72 1015.71 1015.65 1015.57 1015.52 1015.51 1015.57 1015.71 1015.88 1016.05 1016.16 1016.19
1011.54 1011.96 1012.16 1012.09 1011.76 1011.21 1010.55 1009.87 1009.30 1008.92 1008.77 1008.84 1009.08 1009.40 1009.71 1009.94 1010.06 1010.08 1010.05 1010.05 1010.17 1010.45 1010.94 1011.60 1012.38 1013.21 1013.99 1014.65 1015.16 1015.51 1015.73 1015.85 1015.92 1015.97 1016.01 1016.05 1016.05 1016.02 1015.94 1015.83 1015.71 1015.63 1015.61 1015.65 1015.76 1015.90 1016.02 1016.08 1016.05
1011.62 1011.94 1012.02 1011.86 1011.48 1010.94 1010.34 1009.78 1009.35 1009.14 1009.14 1009.34 1009.67 1010.05 1010.38 1010.62 1010.75 1010.78 1010.78 1010.83 1011.01 1011.37 1011.92 1012.64 1013.46 1014.29 1015.04 1015.66 1016.10 1016.37 1016.50 1016.54 1016.52 1016.48 1016.44 1016.39 1016.32 1016.22 1016.10 1015.95 1015.82 1015.72 1015.68 1015.71 1015.79 1015.89 1015.96 1015.97 1015.89
1011.48 1011.68 1011.66 1011.44 1011.04 1010.55 1010.06 1009.66 1009.41 1009.38 1009.55 1009.89 1010.32 1010.75 1011.13 1011.39 1011.54 1011.61 1011.67 1011.79 1012.05 1012.48 1013.09 1013.83 1014.64 1015.42 1016.10 1016.62 1016.95 1017.10 1017.12 1017.04 1016.93 1016.80 1016.68 1016.57 1016.45 1016.32 1016.17 1016.01 1015.88 1015.78 1015.73 1015.75 1015.81 1015.87 1015.91 1015.87 1015.77
1011.11 1011.20 1011.10 1010.85 1010.48 1010.08 1009.73 1009.50 1009.45 1009.61 1009.95 1010.41 1010.93 1011.44 1011.86 1012.16 1012.36 1012.50 1012.63 1012.83 1013.17 1013.66 1014.29 1015.03 1015.78 1016.47 1017.03 1017.41 1017.60 1017.62 1017.51 1017.33 1017.13 1016.93 1016.76 1016.61 1016.47 1016.32 1016.17 1016.02 1015.89 1015.80 1015.77 1015.78 1015.82 1015.86 1015.88 1015.83 1015.72
1010.59 1010.59 1010.44 1010.18 1009.87 1009.58 1009.38 1009.34 1009.47 1009.80 1010.28 1010.86 1011.46 1012.02 1012.49 1012.85 1013.11 1013.31 1013.53 1013.81 1014.21 1014.74 1015.37 1016.06 1016.73 1017.30 1017.72 1017.95 1018.00 1017.89 1017.68 1017.41 1017.15 1016.91 1016.71 1016.55 1016.41 1016.27 1016.13 1016.00 1015.89 1015.82 1015.80 1015.82 1015.86 1015.90 1015.91 1015.87 1015.77
1010.04 1009.97 1009.80 1009.56 1009.32 1009.15 1009.10 1009.22 1009.51 1009.97 1010.56 1011.21 1011.86 1012.46 1012.97 1013.37 1013.69 1013.96 1014.25 1014.60 1015.04 1015.57 1016.18 1016.80 1017.37 1017.82 1018.10 1018.20 1018.13 1017.93 1017.64 1017.33 1017.04 1016.79 1016.60 1016.45 1016.32 1016.21 1016.10 1015.99 1015.91 1015.86 1015.86 1015.89 1015.94 1016.00 1016.03 1016.01 1015.94
1009.58 1009.47 1009.29 1009.10 1008.94 1008.88 1008.96 1009.19 1009.59 1010.14 1010.78 1011.46 1012.12 1012.73 1013.25 1013.68 1014.04 1014.37 1014.71 1015.10 1015.56 1016.08 1016.64 1017.18 1017.65 1017.98 1018.16 1018.17 1018.02 1017.77 1017.46 1017.15 1016.87 1016.65 1016.48 1016.36 1016.27 1016.18 1016.10 1016.02 1015.97 1015.94 1015.96 1016.01 1016.09 1016.17 1016.22 1016.24 1016.23
1009.30 1009.18 1009.02 1008.87 1008.79 1008.82 1008.99 1009.31 1009.76 1010.32 1010.96 1011.61 1012.25 1012.83 1013.34 1013.78 1014.16 1014.52 1014.89 1015.29 1015.75 1016.24 1016.74 1017.21 1017.59 1017.84 1017.95 1017.91 1017.74 1017.49 1017.21 1016.94 1016.71 1016.54 1016.42 1016.34 1016.28 1016.22 1016.17 1016.11 1016.07 1016.07 1016.10 1016.18 1016.29 1016.40 1016.50 1016.56 1016.59
1009.23 1009.11 1008.99 1008.90 1008.89 1008.99 1009.21 1009.55 1010.00 1010.53 1011.11 1011.70 1012.27 1012.80 1013.27 1013.68 1014.06 1014.43 1014.81 1015.21 1015.64 1016.10 1016.54 1016.95 1017.27 1017.47 1017.56 1017.52 1017.38 1017.18 1016.96 1016.76 1016.59 1016.48 1016.42 1016.38 1016.35 1016.32 1016.29 1016.25 1016.23 1016.24 1016.30 1016.40 1016.53 1016.68 1016.81 1016.93 1017.00
1009.33 1009.24 1009.15 1009.13 1009.18 1009.32 1009.57 1009.90 1010.31 1010.76 1011.25 1011.73 1012.21 1012.65 1013.07 1013.45 1013.82 1014.18 1014.55 1014.93 1015.34 1015.75 1016.15 1016.51 1016.80 1017.00 1017.09 1017.10 1017.02 1016.89 1016.76 1016.63 1016.54 1016.49 1016.47 1016.46 1016.46 1016.45 1016.44 1016.42 1016.42 1016.45 1016.52 1016.64 1016.80 1016.97 1017.15 1017.30 1017.41
1009.49 1009.44 1009.42 1009.45 1009.56 1009.74 1009.99 1010.29 1010.62 1010.98 1011.35 1011.72 1012.08 1012.45 1012.80 1013.15 1013.49 1013.84 1014.20 1014.57 1014.95 1015.33 1015.70 1016.04 1016.32 1016.53 1016.66 1016.72 1016.72 1016.68 1016.62 1016.57 1016.53 1016.52 1016.53 1016.55 1016.56 1016.57 1016.57 1016.57 1016.59 1016.65 1016.74 1016.88 1017.06 1017.26 1017.46 1017.64 1017.78
1009.61 1009.61 1009.66 1009.76 1009.93 1010.14 1010.38 1010.63 1010.88 1011.13 1011.39 1011.64 1011.91 1012.20 1012.50 1012.82 1013.15 1013.50 1013.85 1014.21 1014.57 1014.93 1015.28 1015.61 1015.90 1016.14 1016.33 1016.45 1016.52 1016.54 1016.54 1016.53 1016.53 1016.54 1016.55 1016.58 1016.60 1016.63 1016.65 1016.68 1016.74 1016.82 1016.94 1017.11 1017.30 1017.52 1017.73 1017.93 1018.08
1009.61 1009.67 1009.79 1009.97 1010.19 1010.43 1010.66 1010.87 1011.05 1011.19 1011.34 1011.49 1011.68 1011.90 1012.17 1012.48 1012.82 1013.17 1013.53 1013.89 1014.25 1014.61 1014.95 1015.29 1015.60 1015.87 1016.10 1016.28 1016.40 1016.47 1016.51 1016.52 1016.51 1016.51 1016.52 1016.53 1016.56 1016.60 1016.66 1016.73 1016.82 1016.94 1017.10 1017.29 1017.50 1017.73 1017.95 1018.15 1018.31
1009.44 1009.57 1009.77 1010.03 1010.31 1010.58 1010.81 1010.97 1011.07 1011.13 1011.17 1011.24 1011.36 1011.54 1011.80 1012.12 1012.48 1012.86 1013.24 1013.62 1013.99 1014.36 1014.71 1015.05 1015.38 1015.69 1015.96 1016.18 1016.34 1016.44 1016.48 1016.49 1016.46 1016.43 1016.41 1016.41 1016.44 1016.49 1016.58 1016.69 1016.84 1017.01 1017.20 1017.42 1017.65 1017.88 1018.10 1018.30 1018.46
1009.14 1009.34 1009.63 1009.97 1010.31 1010.61 1010.82 1010.93 1010.95 1010.91 1010.87 1010.86 1010.93 1011.09 1011.35 1011.69 1012.09 1012.52 1012.94 1013.35 1013.75 1014.13 1014.49 1014.86 1015.21 1015.55 1015.85 1016.10 1016.29 1016.40 1016.44 1016.42 1016.37 1016.30 1016.25 1016.22 1016.24 1016.31 1016.42 1016.58 1016.78 1017.00 1017.23 1017.48 1017.72 1017.96 1018.18 1018.37 1018.52
1008.80 1009.08 1009.45 1009.86 1010.24 1010.54 1010.72 1010.77 1010.70 1010.56 1010.43 1010.34 1010.36 1010.51 1010.78 1011.16 1011.61 1012.09 1012.56 1013.02 1013.44 1013.85 1014.23 1014.62 1015.00 1015.36 1015.70 1015.98 1016.19 1016.31 1016.35 1016.32 1016.23 1016.13 1016.04 1015.99 1016.00 1016.07 1016.21 1016.41 1016.64 1016.90 1017.17 1017.44 1017.70 1017.94 1018.16 1018.34 1018.49
1008.50 1008.86 1009.31 1009.77 1010.18 1010.46 1010.58 1010.53 1010.35 1010.10 1009.85 1009.68 1009.65 1009.78 1010.06 1010.48 1010.98 1011.51 1012.04 1012.55 1013.01 1013.44 1013.85 1014.26 1014.66 1015.06 1015.43 1015.74 1015.99 1016.14 1016.19 1016.16 1016.06 1015.93 1015.82 1015.74 1015.73 1015.80 1015.95 1016.16 1016.42 1016.71 1017.00 1017.29 1017.56 1017.80 1018.01 1018.19 1018.34
1008.33 1008.77 1009.28 1009.78 1010.18 1010.41 1010.43 1010.26 1009.94 1009.55 1009.17 1008.90 1008.80 1008.90 1009.19 1009.63 1010.18 1010.77 1011.36 1011.91 1012.41 1012.87 1013.30 1013.73 1014.16 1014.59 1015.00 1015.36 1015.65 1015.85 1015.94 1015.93 1015.84 1015.71 1015.58 1015.48 1015.45 1015.50 1015.63 1015.84 1016.10 1016.40 1016.70 1016.99 1017.26 1017.51 1017.72 1017.91 1018.07
1008.30 1008.82 1009.39 1009.90 1010.26 1010.41 1010.31 1009.99 1009.50 1008.95 1008.43 1008.04 1007.86 1007.91 1008.19 1008.66 1009.24 1009.88 1010.52 1011.11 1011.64 1012.12 1012.58 1013.02 1013.48 1013.94 1014.40 1014.82 1015.17 1015.43 1015.58 1015.62 1015.56 1015.45 1015.31 1015.20 1015.15 1015.17 1015.27 1015.45 1015.69 1015.97 1016.26 1016.54 1016.81 1017.06 1017.28 1017.47 1017.64
1008.36 1008.97 1009.58 1010.08 1010.39 1010.43 1010.20 1009.71 1009.05 1008.33 1007.66 1007.15 1006.88 1006.88 1007.14 1007.61 1008.22 1008.90 1009.57 1010.19 1010.75 1011.26 1011.72 1012.18 1012.66 1013.15 1013.65 1014.12 1014.55 1014.88 1015.10 1015.21 1015.20 1015.12 1015.00 1014.88 1014.80 1014.78 1014.85 1014.98 1015.18 1015.42 1015.68 1015.95 1016.21 1016.45 1016.68 1016.88 1017.07
1008.44 1009.12 1009.76 1010.25 1010.49 1010.43 1010.06 1009.41 1008.59 1007.71 1006.90 1006.27 1005.92 1005.86 1006.10 1006.56 1007.19 1007.89 1008.59 1009.24 1009.82 1010.34 1010.81 1011.28 1011.76 1012.27 1012.80 1013.33 1013.81 1014.22 1014.52 1014.69 1014.75 1014.72 1014.62 1014.50 1014.40 1014.35 1014.36 1014.44 1014.59 1014.79 1015.01 1015.25 1015.49 1015.73 1015.95 1016.17 1016.37
1008.41 1009.16 1009.83 1010.29 1010.48 1010.32 1009.83 1009.06 1008.11 1007.10 1006.18 1005.47 1005.04 1004.94 1005.15 1005.60 1006.24 1006.95 1007.67 1008.33 1008.92 1009.44 1009.91 1010.38 1010.86 1011.37 1011.92 1012.48 1013.00 1013.47 1013.83 1014.08 1014.20 1014.21 1014.14 1014.04 1013.93 1013.85 1013.82 1013.86 1013.95 1014.10 1014.28 1014.49 1014.71 1014.93 1015.15 1015.36 1015.57
1008.21 1009.01 1009.69 1010.13 1010.27 1010.05 1009.48 1008.63 1007.60 1006.52 1005.53 1004.77 1004.30 1004.16 1004.34 1004.79 1005.41 1006.12 1006.84 1007.51 1008.10 1008.62 1009.09 1009.55 1010.02 1010.52 1011.07 1011.63 1012.17 1012.67 1013.08 1013.37 1013.54 1013.60 1013.57 1013.49 1013.38 1013.30 1013.25 1013.25 1013.30 1013.41 1013.56 1013.73 1013.92 1014.11 1014.31 1014.51 1014.72
1007.79 1008.62 1009.29 1009.72 1009.83 1009.57 1008.97 1008.09 1007.04 1005.95 1004.96 1004.18 1003.70 1003.55 1003.71 1004.13 1004.73 1005.43 1006.14 1006.80 1007.40 1007.91 1008.38 1008.82 1009.27 1009.76 1010.28 1010.82 1011.36 1011.85 1012.27 1012.59 1012.80 1012.89 1012.90 1012.85 1012.77 1012.70 1012.65 1012.64 1012.68 1012.76 1012.87 1013.01 1013.17 1013.33 1013.50 1013.68 1013.86
1007.19 1008.00 1008.65 1009.05 1009.13 1008.87 1008.29 1007.44 1006.44 1005.40 1004.45 1003.71 1003.25 1003.09 1003.23 1003.63 1004.20 1004.86 1005.54 1006.19 1006.78 1007.29 1007.75 1008.19 1008.62 1009.08 1009.57 1010.08 1010.58 1011.05 1011.45 1011.77 1011.99 1012.11 1012.16 1012.15 1012.11 1012.07 1012.05 1012.05 1012.09 1012.16 1012.26 1012.37 1012.50 1012.63 1012.76 1012.90 1013.04
1006.48 1007.24 1007.83 1008.19 1008.25 1008.00 1007.46 1006.69 1005.78 1004.85 1004.00 1003.33 1002.90 1002.75 1002.87 1003.22 1003.74 1004.35 1004.99 1005.61 1006.18 1006.70 1007.16 1007.60 1008.03 1008.47 1008.93 1009.39 1009.84 1010.26 1010.63 1010.93 1011.14 1011.28 1011.36 1011.40 1011.41 1011.42 1011.45 1011.49 1011.55 1011.63 1011.72 1011.81 1011.91 1011.99 1012.08 1012.18 1012.28
Thickness
5815 5818 5818 5811 5804 5801 5795 5802 5809 5808 5809 5815 5817 5813 5807 5801 5796 5789 5810 5820 5820 5818 5815 5809 5806 5805 5803 5802 5800 5799 5798 5797 5795 5794 5792 5791 5790 5789 5787 5786 5784 5783 5781 5780 5778 5777 5776 5775 5773
5823 5821 5815 5811 5805 5793 5792 5806 5807 5808 5813 5819 5819 5815 5809 5804 5809 5808 5813 5817 5819 5818 5815 5811 5805 5804 5802 5801 5799 5798 5797 5796 5795 5793 5792 5790 5789 5788 5787 5786 5784 5782 5781 5779 5778 5777 5775 5774 5773
5824 5822 5815 5815 5806 5796 5794 5808 5810 5815 5821 5819 5815 5816 5809 5804 5810 5812 5816 5819 5819 5817 5814 5809 5804 5802 5801 5800 5798 5797 5796 5795 5795 5793 5791 5790 5789 5788 5786 5785 5783 5781 5780 5779 5777 5776 5775 5773 5772
5825 5821 5820 5813 5803 5808 5809 5814 5817 5816 5819 5821 5818 5809 5810 5813 5815 5818 5820 5820 5818 5815 5814 5808 5803 5801 5799 5798 5797 5796 5794 5794 5793 5792 5790 5788 5788 5787 5785 5783 5782 5781 5779 5778 5777 5775 5774 5772 5771
5827 5822 5814 5808 5807 5813 5821 5823 5823 5817 5815 5818 5818 5806 5803 5814 5821 5822 5820 5820 5817 5815 5813 5807 5801 5799 5797 5796 5795 5794 5793 5792 5790 5789 5788 5788 5787 5786 5784 5783 5781 5780 5779 5778 5776 5774 5773 5772 5771
5825 5824 5811 5803 5806 5816 5824 5828 5825 5819 5818 5819 5817 5809 5804 5816 5818 5819 5820 5819 5818 5815 5812 5807 5801 5798 5796 5795 5794 5793 5791 5790 5789 5788 5787 5786 5786 5785 5783 5782 5781 5779 5778 5777 5775 5774 5773 5772 5771
5822 5821 5812 5812 5810 5813 5821 5831 5825 5821 5818 5820 5823 5810 5807 5813 5819 5821 5820 5818 5817 5815 5812 5809 5805 5799 5796 5794 5792 5791 5790 5789 5788 5787 5786 5785 5784 5783 5782 5781 5780 5779 5778 5776 5775 5774 5773 5772 5771
5832 5825 5818 5818 5813 5813 5827 5831 5831 5826 5821 5830 5828 5813 5807 5813 5821 5821 5818 5816 5814 5813 5812 5809 5807 5803 5800 5796 5792 5790 5788 5788 5787 5786 5785 5784 5783 5783 5782 5781 5779 5778 5777 5776 5775 5774 5773 5773 5772
5835 5823 5816 5819 5817 5819 5831 5828 5831 5836 5830 5827 5828 5825 5823 5822 5821 5817 5813 5811 5810 5809 5809 5809 5807 5804 5802 5799 5794 5791 5788 5787 5786 5786 5784 5784 5785 5785 5783 5781 5778 5777 5777 5776 5775 5774 5773 5773 5772
5832 5820 5821 5831 5834 5830 5831 5829 5830 5828 5822 5820 5821 5823 5824 5821 5817 5813 5810 5807 5807 5806 5807 5806 5806 5803 5802 5799 5795 5793 5791 5789 5788 5787 5786 5785 5784 5783 5783 5779 5778 5777 5776 5775 5775 5774 5774 5774 5776
5833 5825 5832 5837 5842 5839 5833 5832 5837 5827 5819 5822 5820 5819 5820 5818 5815 5813 5812 5811 5810 5809 5807 5806 5805 5803 5801 5798 5796 5794 5792 5790 5788 5786 5785 5784 5783 5782 5782 5781 5779 5778 5778 5778 5777 5777 5777 5777 5776
5834 5835 5838 5839 5844 5840 5836 5835 5832 5830 5828 5835 5833 5828 5822 5817 5816 5814 5813 5812 5811 5808 5806 5806 5804 5802 5799 5797 5795 5793 5792 5790 5789 5785 5784 5784 5783 5782 5781 5780 5780 5780 5780 5778 5778 5777 5777 5776 5775
5834 5835 5842 5846 5846 5843 5839 5835 5832 5831 5837 5838 5834 5828 5824 5820 5819 5818 5816 5814 5811 5808 5807 5806 5803 5800 5797 5794 5793 5792 5790 5790 5788 5785 5784 5783 5783 5781 5781 5780 5778 5779 5779 5778 5777 5776 5776 5776 5775
5838 5840 5842 5845 5844 5843 5836 5835 5833 5831 5839 5835 5830 5826 5825 5822 5820 5818 5815 5812 5810 5808 5806 5805 5802 5799 5796 5794 5791 5791 5790 5787 5787 5785 5783 5782 5782 5780 5780 5779 5777 5778 5777 5777 5776 5776 5775 5776 5774
5843 5836 5837 5842 5843 5843 5839 5826 5829 5836 5838 5832 5830 5827 5826 5824 5823 5819 5817 5814 5812 5809 5807 5804 5802 5800 5796 5794 5792 5791 5790 5789 5787 5785 5782 5780 5780 5779 5778 5778 5777 5777 5776 5775 5775 5774 5775 5774 5773
5839 5832 5826 5836 5841 5842 5833 5816 5832 5841 5837 5831 5830 5828 5825 5824 5824 5822 5820 5817 5814 5810 5806 5804 5804 5800 5796 5793 5791 5790 5789 5788 5786 5784 5782 5779 5779 5778 5777 5778 5777 5775 5775 5775 5774 5774 5773 5772 5771
5830 5823 5823 5830 5842 5841 5834 5823 5835 5842 5837 5831 5830 5829 5826 5824 5823 5823 5822 5819 5815 5811 5807 5803 5802 5799 5796 5793 5791 5789 5787 5786 5785 5783 5781 5779 5778 5778 5778 5777 5776 5775 5775 5774 5774 5773 5772 5770 5768
5818 5822 5822 5824 5837 5837 5832 5831 5838 5842 5838 5834 5832 5830 5827 5825 5824 5825 5823 5820 5817 5812 5808 5804 5801 5798 5795 5793 5790 5788 5786 5785 5785 5783 5780 5778 5777 5776 5776 5776 5775 5775 5773 5771 5770 5768 5768 5768 5766
5828 5823 5820 5828 5840 5834 5831 5832 5837 5842 5838 5835 5832 5831 5828 5827 5829 5828 5825 5821 5816 5812 5808 5805 5801 5797 5793 5791 5788 5785 5783 5783 5782 5782 5779 5778 5776 5776 5775 5775 5774 5773 5772 5769 5769 5767 5765 5765 5765
5824 5819 5821 5829 5837 5832 5830 5832 5841 5842 5839 5838 5835 5832 5831 5829 5828 5825 5823 5821 5817 5812 5808 5805 5801 5798 5795 5791 5788 5786 5784 5783 5782 5781 5778 5776 5775 5775 5775 5772 5773 5773 5770 5768 5766 5765 5764 5764 5764
5822 5820 5822 5822 5829 5835 5829 5826 5834 5841 5843 5841 5840 5839 5837 5832 5828 5824 5822 5820 5817 5813 5810 5808 5803 5799 5795 5792 5789 5785 5781 5780 5779 5778 5777 5776 5775 5774 5773 5772 5772 5771 5771 5768 5765 5764 5761 5760 5762
5816 5830 5827 5823 5819 5821 5824 5812 5828 5837 5835 5836 5838 5839 5838 5836 5832 5827 5823 5820 5818 5816 5814 5809 5803 5799 5795 5791 5788 5784 5780 5777 5777 5777 5777 5775 5774 5773 5772 5771 5770 5769 5770 5767 5766 5764 5762 5759 5758
5824 5832 5827 5824 5820 5818 5823 5815 5828 5838 5831 5835 5839 5840 5841 5839 5835 5829 5826 5823 5821 5819 5815 5810 5804 5799 5795 5791 5787 5783 5781 5779 5779 5777 5774 5773 5773 5772 5770 5769 5768 5767 5767 5765 5763 5761 5760 5759 5757
5829 5824 5822 5823 5821 5802 5815 5811 5818 5837 5835 5838 5841 5841 5840 5839 5836 5832 5829 5825 5821 5818 5815 5810 5802 5797 5795 5791 5788 5784 5781 5779 5776 5773 5772 5772 5772 5771 5769 5768 5766 5765 5765 5763 5761 5760 5759 5757 5755
5821 5810 5797 5794 5796 5801 5820 5812 5821 5840 5845 5844 5841 5840 5840 5838 5834 5830 5826 5823 5819 5816 5813 5809 5802 5796 5794 5791 5788 5785 5782 5779 5775 5773 5771 5770 5771 5770 5767 5767 5765 5764 5762 5761 5760 5758 5757 5755 5752
5817 5815 5795 5783 5789 5805 5811 5809 5830 5845 5847 5847 5845 5843 5839 5836 5834 5830 5827 5823 5819 5816 5812 5807 5801 5796 5793 5790 5787 5785 5782 5781 5779 5775 5773 5771 5771 5770 5768 5765 5763 5762 5760 5760 5757 5757 5755 5753 5751
5811 5812 5824 5811 5805 5800 5809 5819 5833 5841 5840 5841 5841 5838 5835 5833 5832 5829 5826 5823 5820 5815 5811 5807 5801 5795 5793 5790 5786 5783 5781 5780 5778 5774 5772 5772 5769 5769 5766 5764 5762 5760 5758 5756 5754 5753 5751 5750 5749
5823 5821 5811 5802 5782 5783 5799 5808 5817 5824 5830 5834 5835 5833 5832 5831 5829 5828 5825 5822 5819 5815 5810 5805 5800 5795 5791 5789 5786 5784 5780 5778 5775 5774 5771 5769 5767 5766 5764 5762 5760 5758 5755 5753 5751 5751 5748 5745 5744
5806 5807 5807 5806 5804 5787 5785 5804 5831 5828 5831 5830 5832 5832 5829 5828 5827 5826 5823 5821 5818 5813 5808 5803 5797 5793 5790 5788 5785 5782 5779 5777 5775 5772 5770 5767 5765 5763 5761 5759 5757 5754 5752 5750 5748 5747 5744 5742 5739
5815 5812 5807 5793 5789 5795 5792 5804 5834 5832 5834 5831 5829 5827 5826 5824 5824 5823 5821 5817 5814 5811 5807 5802 5797 5793 5790 5787 5782 5779 5777 5775 5773 5771 5768 5766 5763 5761 5759 5756 5754 5752 5750 5747 5745 5742 5741 5738 5735